This demonstration page uses our WeatherBlox Daily Observations layout. Learn more.

Left ArrowRight Arrow

Hourly Observations for July 26, 2021

Temp ( °F °C ) Dew Point ( °F °C ) Humidity (%) Winds ( mph kmh ) Pressure ( in mb ) Visibility ( mi km ) Precip ( " mm )
12:15 am 00:15 Clear 67 19.3 65 18.3 94 94 N N/A 30.00 1016 10 16 N/A
12:35 am 00:35 Clear 66 19.1 64 17.8 92 92 N N/A 30.00 1016 10 16 N/A
12:55 am 00:55 Clear 66 19 64 18 94 94 N N/A 30.01 1016 10 16 N/A
1:15 am 01:15 Clear 67 19.5 65 18.1 92 92 N N/A 29.99 1016 10 16 N/A
1:35 am 01:35 Clear 66 18.8 64 17.7 93 93 SE 3 6 30.00 1016 10 16 N/A
1:55 am 01:55 Clear 66 18.8 64 17.7 93 93 N N/A 30.00 1016 10 16 N/A
2:15 am 02:15 Clear 65 18.5 64 17.5 94 94 SSE 3 6 30.00 1016 10 16 N/A
2:35 am 02:35 Clear 66 18.7 64 17.5 93 93 N N/A 30.00 1016 10 16 N/A
2:55 am 02:55 Clear 65 18.2 63 17.2 94 94 N N/A 29.99 1016 10 16 N/A
3:15 am 03:15 Clear 65 18.4 64 17.6 95 95 N N/A 29.98 1015 10 16 N/A
3:35 am 03:35 Clear 65 18.1 63 17.2 95 95 SE 3 6 29.98 1015 10 16 N/A
3:55 am 03:55 Clear 65 18.6 64 17.9 96 96 SE 3 6 29.97 1015 7 11 N/A
4:15 am 04:15 Clear 65 18.5 64 17.7 95 95 SE 5 7 29.97 1015 7 11 N/A
4:35 am 04:35 Clear 65 18.4 64 17.7 96 96 SE 3 6 29.96 1015 7 11 N/A
4:55 am 04:55 Clear 65 18.5 64 17.8 96 96 SSE 6 9 29.96 1015 7 11 N/A
5:15 am 05:15 Clear 66 18.8 65 18.2 96 96 SSE 6 9 29.97 1015 7 11 N/A
5:35 am 05:35 Clear 66 19.1 65 18.5 96 96 SE 5 7 29.96 1015 7 11 N/A
5:55 am 05:55 Clear with Mist and Fog 66 19.1 65 18.5 96 96 N N/A 29.96 1015 5 8 N/A
6:15 am 06:15 Clear with Mist and Fog 67 19.2 65 18.6 96 96 S 3 6 29.96 1015 5 8 N/A
6:35 am 06:35 Sunny with Mist and Fog 67 19.3 66 18.7 96 96 SSE 3 6 29.97 1015 5 8 N/A
6:55 am 06:55 Mostly Cloudy with Mist and Fog 67 19.3 66 18.7 96 96 S 3 6 29.97 1015 4 6 N/A
7:15 am 07:15 Cloudy with Mist and Fog 68 20.1 67 19.6 97 97 SSE 5 7 29.97 1015 2 2 N/A
7:35 am 07:35 Cloudy with Fog 69 20.7 68 20.2 97 97 S 8 13 29.96 1015 0 0 N/A
7:55 am 07:55 Cloudy with Fog 70 21 69 20.5 97 97 SSE 5 7 29.96 1015 1 1 N/A
8:15 am 08:15 Cloudy with Mist and Fog 71 21.5 70 21 97 97 S 9 15 29.95 1014 1 1 N/A
8:35 am 08:35 Cloudy with Fog 71 21.6 70 21.1 97 97 SSE 8 13 29.95 1014 0 0 N/A
8:55 am 08:55 Cloudy with Mist and Fog 71 21.9 71 21.4 97 97 S 9 15 29.96 1015 1 2 N/A
9:15 am 09:15 Cloudy with Mist and Fog 73 22.5 72 22 97 97 S 6 9 29.96 1014 5 8 N/A
9:35 am 09:35 Cloudy with Mist and Fog 73 22.7 72 22 96 96 S 8 13 29.95 1014 5 8 N/A
9:55 am 09:55 Cloudy with Mist and Fog 73 23 72 22.2 95 95 SE 8 13 29.96 1015 3 4 N/A
10:15 am 10:15 Cloudy with Mist and Fog 74 23.3 72 22.3 94 94 SE 7 11 29.96 1015 5 8 N/A
10:35 am 10:35 Cloudy 75 24.1 72 22.1 89 89 S 6 9 29.95 1014 10 16 N/A
10:55 am 10:55 Mostly Cloudy 78 25.7 72 22.2 81 81 SE 7 11 29.94 1014 10 16 N/A
11:15 am 11:15 Mostly Cloudy 78 25.8 72 22.2 81 81 SSE 7 11 29.93 1014 10 16 N/A
11:35 am 11:35 Partly Cloudy 80 26.5 72 22.4 78 78 SE 10 17 29.92 1013 10 16 N/A
11:55 am 11:55 Partly Cloudy 81 27.4 72 22.3 74 74 SSE 8 13 29.92 1013 10 16 N/A
12:15 pm 12:15 Partly Cloudy 82 27.9 73 22.5 73 73 SSE 12 19 29.91 1013 10 16 N/A
12:35 pm 12:35 Partly Cloudy 83 28.4 73 22.5 70 70 SE 9 15 29.92 1013 10 16 N/A
12:55 pm 12:55 Partly Cloudy 84 29.1 72 22.4 67 67 SE 10 17 29.91 1013 10 16 N/A
1:15 pm 13:15 Partly Cloudy 84 29.1 72 22 66 66 SE 9 15 29.90 1013 10 16 N/A
1:35 pm 13:35 Partly Cloudy 85 29.3 73 22.6 67 67 SE 13 20 29.90 1013 10 16 N/A
1:55 pm 13:55 Partly Cloudy 85 29.5 72 22.2 65 65 SE 10 17 29.90 1013 10 16 N/A
2:15 pm 14:15 Partly Cloudy 86 30.2 72 22.1 62 62 SSE 13 20 29.90 1012 10 16 N/A
2:35 pm 14:35 Partly Cloudy 86 30.2 72 22.3 63 63 SE 10 17 29.90 1012 10 16 N/A
2:55 pm 14:55 Mostly Cloudy 86 29.8 72 22.3 64 64 SSE 10 17 29.90 1012 10 16 N/A
3:15 pm 15:15 Mostly Cloudy 86 30.1 72 22.3 63 63 SSE 10 17 29.89 1012 10 16 N/A
3:35 pm 15:35 Mostly Cloudy 86 29.9 72 22.1 63 63 SSE 13 20 29.89 1012 10 16 N/A
3:55 pm 15:55 Mostly Cloudy 86 30.1 73 22.8 65 65 SE 10 17 29.89 1012 10 16 N/A
4:15 pm 16:15 Partly Cloudy 87 30.5 73 23 64 64 SE 10 17 29.87 1012 10 16 N/A
4:35 pm 16:35 Partly Cloudy 88 31 73 22.6 61 61 SSE 12 19 29.86 1011 10 16 N/A
4:55 pm 16:55 Partly Cloudy 87 30.6 73 22.8 63 63 SE 9 15 29.85 1011 10 16 N/A
5:15 pm 17:15 Sunny 88 31 72 22.2 59 59 SSE 9 15 29.85 1011 10 16 N/A
5:35 pm 17:35 Sunny 87 30.7 73 22.5 62 62 SE 9 15 29.84 1011 10 16 N/A
5:55 pm 17:55 Sunny 87 30.6 73 22.7 63 63 ESE 9 15 29.84 1011 10 16 N/A
6:15 pm 18:15 Sunny 87 30.6 73 22.7 63 63 SE 10 17 29.84 1011 10 16 N/A
6:35 pm 18:35 Sunny 86 30 74 23.2 67 67 ESE 9 15 29.84 1010 10 16 N/A
6:55 pm 18:55 Sunny 85 29.6 74 23.2 69 69 ESE 12 19 29.84 1011 10 16 N/A
7:15 pm 19:15 Sunny 85 29.5 74 23.2 69 69 SE 10 17 29.83 1010 10 16 N/A
7:35 pm 19:35 Sunny 84 29 73 23 70 70 SE 12 19 29.84 1010 10 16 N/A
7:55 pm 19:55 Sunny 84 28.7 74 23.2 72 72 SE 10 17 29.84 1010 10 16 N/A
8:15 pm 20:15 Sunny 83 28.3 74 23.1 73 73 SE 10 17 29.85 1011 10 16 N/A
8:35 pm 20:35 Sunny 81 27.3 74 23.1 78 78 SE 8 13 29.87 1011 10 16 N/A
8:55 pm 20:55 Sunny 80 26.8 73 23 80 80 SE 9 15 29.87 1012 10 16 N/A
9:15 pm 21:15 Clear 80 26.5 72 22.4 78 78 SSE 12 19 29.88 1012 10 16 N/A
9:35 pm 21:35 Clear 78 25.7 71 21.7 79 79 SSE 7 11 29.90 1013 10 16 N/A
9:55 pm 21:55 Clear 77 24.9 71 21.7 82 82 SSE 6 9 29.92 1013 10 16 N/A
10:15 pm 22:15 Clear 76 24.4 71 21.5 84 84 SSE 6 9 29.92 1013 10 16 N/A
10:35 pm 22:35 Clear 74 23.6 71 21.5 88 88 SSE 5 7 29.93 1013 10 16 N/A
10:55 pm 22:55 Clear 74 23.3 70 21.2 88 88 SSE 5 7 29.93 1014 10 16 N/A
11:15 pm 23:15 Clear 73 23 70 21 89 89 SSE 5 7 29.93 1014 10 16 N/A
11:35 pm 23:35 Clear 73 22.7 69 20.5 87 87 SSE 5 7 29.93 1014 10 16 N/A
11:55 pm 23:55 Clear 73 22.5 68 20.2 87 87 SSE 5 7 29.94 1014 10 16 N/A

Powered by AerisWeather